Chamberlain, SD

12:43 AM CDT on September 27, 2016 (GMT -0500)
Chamberlain

Weather History for K9V9 - March, 2013

Change the Weather History Date:

Friday, March 8, 2013

  Actual Average Record
Temperature  
Mean Temperature 34 °F -  
Max Temperature 42 °F 33 °F 62 °F (2007)
Min Temperature 26 °F 15 °F 0 °F (2003)
Degree Days  
Heating Degree Days 31    
Moisture  
Dew Point 29 °F    
Average Humidity 85    
Maximum Humidity 92    
Minimum Humidity 65    
Precipitation  
Precipitation 0.00 in - - ()
Sea Level Pressure  
Sea Level Pressure 30.07 in    
Wind  
Wind Speed 8 mph (NE)    
Max Wind Speed 14 mph    
Max Gust Speed -    
Averages and records for this station are not official NWS values.
T = Trace of Precipitation, MM = Missing Value Source: NWS Daily Summary

Daily Weather History Graph

Daily Weather History Graph

Search for Another Location

Airport or City:

Trip Planner

Search our weather history database for the weather conditions in past years. The results will help you decide how hot, cold, wet, or windy it might be!

Date:

Astronomy

Mar. 08, 2013 Rise Set
Actual Time 7:01 AM CST 6:35 PM CST
Civil Twilight 6:32 AM CST 7:03 PM CST
Nautical Twilight 5:59 AM CST 7:37 PM CST
Astronomical Twilight 5:26 AM CST 8:10 PM CST
Moon 4:52 AM CST (3/8) 3:27 PM CST (3/8)
Length of Visible Light 12h 31m
Length of Day
11h 33m
Waning Crescent, 11% of the Moon is Illuminated
Mar 8
Waning Crescent
Mar 11
New
Mar 19
First Quarter
Mar 27
Full
Apr 2
Last Quarter

Hourly Weather History & Observations

Time (CST) Temp. Windchill Dew Point Humidity Pressure Visibility Wind Dir Wind Speed Gust Speed Precip Events Conditions
12:52 AM 28.9 °F 21.9 °F 26.1 °F 89% 30.15 in - NNW 6.9 mph - N/A   Unknown
1:52 AM 28.9 °F 21.9 °F 26.1 °F 89% 30.17 in - NNW 6.9 mph - N/A   Unknown
2:52 AM 28.9 °F 19.8 °F 26.1 °F 89% 30.16 in - North 10.4 mph - N/A   Unknown
3:52 AM 28.0 °F 18.1 °F 25.0 °F 88% 30.14 in - NNE 11.5 mph - N/A   Unknown
4:52 AM 27.0 °F 20.5 °F 25.0 °F 92% 30.17 in - NNE 5.8 mph - N/A   Unknown
5:52 AM 26.1 °F 18.4 °F 23.0 °F 88% 30.17 in - NNE 6.9 mph - N/A   Unknown
6:52 AM 28.0 °F 20.0 °F 26.1 °F 92% 30.17 in - NE 8.1 mph - N/A   Unknown
7:52 AM 28.0 °F 20.8 °F 26.1 °F 92% 30.17 in - ENE 6.9 mph - N/A   Unknown
8:52 AM 28.9 °F 20.4 °F 27.0 °F 92% 30.15 in - ENE 9.2 mph - N/A   Unknown
9:52 AM 30.9 °F 22.8 °F 28.9 °F 92% 30.15 in - ESE 9.2 mph - N/A   Unknown
10:52 AM 30.9 °F 25.2 °F 28.9 °F 92% 30.16 in - SE 5.8 mph - N/A   Unknown
11:52 AM 32.0 °F 26.4 °F 28.9 °F 88% 30.16 in - ESE 5.8 mph - N/A   Unknown
12:52 PM 35.1 °F 29.3 °F 30.0 °F 82% 30.12 in - ENE 6.9 mph - N/A   Unknown
1:52 PM 42.1 °F 36.1 °F 30.9 °F 65% 30.06 in - NE 10.4 mph - N/A   Unknown
2:52 PM 41.0 °F 33.5 °F 30.9 °F 67% 30.02 in - ENE 13.8 mph - N/A   Unknown
3:52 PM 39.9 °F 32.5 °F 32.0 °F 73% 30.00 in - ENE 12.7 mph - N/A   Unknown
4:52 PM 37.9 °F 29.6 °F 30.9 °F 76% 29.99 in - East 13.8 mph - N/A   Unknown
5:52 PM 37.0 °F 29.8 °F 30.0 °F 76% 29.99 in - ENE 10.4 mph - N/A   Unknown
6:52 PM 35.1 °F 29.3 °F 30.0 °F 82% 29.99 in - NE 6.9 mph - N/A   Unknown
7:52 PM 34.0 °F 28.0 °F 30.0 °F 85% 29.97 in - NNE 6.9 mph - N/A   Unknown
8:52 PM 34.0 °F 28.0 °F 30.0 °F 85% 29.97 in - North 6.9 mph - N/A   Unknown
9:52 PM 34.0 °F 28.0 °F 30.9 °F 89% 29.95 in - North 6.9 mph - N/A   Unknown
10:52 PM 34.0 °F 26.6 °F 30.9 °F 89% 29.92 in - NNE 9.2 mph - N/A   Unknown
11:52 PM 35.1 °F 27.4 °F 32.0 °F 89% 29.89 in - NE 10.4 mph - N/A   Unknown